Lid_Strength_Index
-1 -2 -2 -1 -1 -1 -1 -1 -1 -1 -1 -1 -0 -0 -0 -1 -1 -1 -1 -1 -1 -1 -1 -1 -1 -1 2 6 6 2 1 1 1 1 4 4 5 5 7 7 7 8 8 9 9 9 9
-0 -1 -1 -1 -0 -1 -1 -1 -1 -1 -1 -1 -0 -0 -1 -1 -1 -1 -1 -1 -1 -1 -1 -1 -0 1 5 9 3 2 2 3 2 2 4 4 5 5 6 7 8 7 8 9 10 10 9
-1 -1 -1 -1 -1 -0 -1 -1 -1 -1 -1 -1 -1 -0 -1 -0 -1 -2 -1 -1 -1 -1 -1 1 1 2 7 7 2 2 2 2 2 2 4 4 5 6 5 7 7 8 10 10 9 9 9
-1 -1 -1 -2 -1 -0 -0 -1 -1 -1 -1 -1 -1 -0 -0 -1 -1 -1 -1 -0 -0 -1 -1 0 0 3 7 2 1 2 2 3 3 3 4 4 5 6 6 6 9 10 9 10 9 8 8
-1 -1 -1 -1 -2 -1 0 -0 -1 -1 -1 -1 -1 -0 -0 -1 -1 -1 -0 -0 0 0 0 -0 3 5 7 1 3 2 2 4 3 3 4 5 5 7 7 8 10 10 11 10 10 8 8
-1 -0 -1 -1 -1 -1 0 0 -0 -0 -0 0 -0 -0 0 0 -0 -0 -0 -0 -0 0 2 2 3 6 4 6 3 3 2 3 4 5 6 6 6 8 7 9 12 11 11 10 10 9 9
-1 -0 -0 -1 -0 -1 -0 1 0 -0 0 0 0 0 0 1 1 0 1 1 4 5 4 6 6 6 5 3 3 4 3 4 5 6 8 7 9 10 8 8 9 9 10 10 10 9 10
-0 -0 0 -0 0 -0 -1 0 1 0 0 0 0 0 0 0 1 1 1 4 5 5 8 4 4 4 4 4 6 5 3 6 7 9 8 9 10 9 9 9 9 9 10 10 10 10 10
1 0 0 0 0 0 -0 -0 1 0 0 0 0 0 0 1 1 2 2 4 2 3 8 7 5 5 6 4 7 6 4 6 8 9 9 9 9 9 9 10 10 10 11 11 11 10 10
1 1 0 0 1 1 1 -1 0 1 1 1 1 0 1 1 3 3 4 2 2 3 9 9 7 6 6 5 7 4 4 6 7 9 8 9 9 10 10 11 10 11 10 11 11 11 12
1 1 1 1 1 1 1 0 -0 0 1 2 1 1 2 1 3 5 3 2 2 3 18 9 8 4 5 7 6 6 4 5 8 9 9 11 10 10 10 11 10 11 10 11 11 11 12
1 1 1 1 1 1 1 1 0 0 1 2 2 2 2 2 2 4 3 3 4 12 18 11 8 8 8 7 7 6 6 5 6 8 8 10 8 9 10 10 9 9 11 11 11 11 16
2 2 2 1 1 1 1 1 1 0 1 2 3 3 2 2 4 2 3 4 13 15 11 11 10 9 9 9 9 8 9 9 10 14 13 11 11 9 9 10 10 10 11 17 18 18 16
2 2 2 2 1 1 1 1 1 1 1 1 3 4 4 4 2 3 4 9 16 13 12 9 9 9 11 10 10 9 10 11 10 10 11 13 15 11 10 10 11 11 12 15 17 15 14
2 2 2 2 2 1 1 1 1 2 1 2 3 2 3 3 3 3 6 13 13 11 10 10 10 11 12 10 10 10 10 11 10 10 11 13 13 10 10 9 10 11 13 12 14 15 16
2 2 2 2 2 2 2 2 2 2 2 2 2 4 4 4 3 5 7 12 11 10 9 9 11 10 12 11 11 10 10 10 11 10 10 11 13 11 10 9 10 11 11 14 13 17 18
2 2 2 2 2 2 2 2 2 2 2 3 3 4 3 4 5 6 10 11 10 9 9 10 11 12 11 12 11 12 11 10 10 10 10 11 12 13 11 12 12 13 13 13 13 14 16
3 3 2 2 2 2 2 2 2 2 3 5 2 6 2 4 6 8 10 10 9 10 9 10 10 11 12 12 12 12 12 11 10 10 12 12 13 14 14 12 11 11 12 12 15 15 14
3 3 3 2 2 2 3 2 2 2 3 4 5 5 2 4 9 9 9 10 10 10 11 11 11 10 11 12 13 12 12 10 9 10 11 11 13 15 16 14 12 13 12 11 12 13 15
2 2 2 3 3 2 3 3 2 2 3 4 5 8 6 6 7 9 10 11 11 9 10 10 11 11 11 12 12 13 12 10 9 10 11 10 12 13 14 14 12 14 12 12 12 14 14
2 2 2 2 3 3 3 3 3 3 3 3 6 8 9 9 10 10 10 11 12 12 10 10 11 11 12 13 13 13 12 11 10 10 10 10 14 13 14 13 13 13 13 12 14 13 14
3 3 3 2 2 3 3 3 3 3 4 4 6 7 7 8 9 9 10 12 12 12 11 12 12 11 11 13 13 13 12 12 12 10 11 11 14 13 14 12 12 14 13 13 13 13 13
4 4 4 3 3 3 3 3 3 4 3 4 5 6 6 10 9 9 10 10 11 11 10 10 11 11 12 12 11 11 11 11 12 12 13 13 14 14 15 13 13 15 13 12 12 11 12
4 5 5 4 4 3 3 3 3 4 4 4 6 6 7 10 9 9 10 10 10 10 10 10 10 10 10 8 8 9 9 10 10 11 10 12 13 12 14 13 18 12 11 11 11 11 11
5 5 5 4 4 3 3 3 4 4 5 4 5 6 7 10 9 10 10 10 9 9 10 10 9 9 8 9 10 11 11 12 11 11 11 11 12 13 15 15 12 11 13 13 13 13 12
6 6 5 5 4 4 4 4 4 4 5 4 5 5 6 9 10 9 10 9 10 10 10 10 9 8 8 9 10 13 14 12 13 14 12 11 11 13 14 16 17 13 11 11 11 14 11
6 6 6 5 5 4 4 4 4 4 4 4 4 5 6 8 8 8 9 9 9 9 10 9 10 10 9 10 12 13 13 11 14 14 15 14 14 15 14 15 13 11 10 10 15 14 10
6 6 6 6 5 5 5 5 4 4 4 4 5 5 6 8 8 8 8 9 9 9 10 10 10 11 11 13 13 12 13 12 13 12 13 13 14 14 13 15 17 10 11 13 11 10 10
7 7 7 7 6 6 6 6 6 5 4 4 5 6 6 7 8 7 7 7 8 7 9 9 10 10 9 11 11 11 13 12 12 14 11 14 11 12 11 12 10 9 10 10 10 11 10